This is the latest recevied weather packets stored in our database for station/object N0RPM-13. If no packets are shown the sender has not sent any weather packets the latest 10 day(s).
| Time | Temp. | Humidity | Pressure | Rain* | Wind** | Luminosity | Snow |
|---|---|---|---|---|---|---|---|
| 1788564051 | 29.44° C | 64% | 1013.6 hPa | 0 mm | - | 63 W/m² | - |
| 1788563746 | 30° C | 62% | 1013.6 hPa | 0 mm | - | 83 W/m² | - |
| 1788563441 | 30° C | 63% | 1013.7 hPa | 0 mm | - | 136 W/m² | - |
| 1788563140 | 30° C | 63% | 1013.5 hPa | 0 mm | - | 149 W/m² | - |
| 1788562836 | 30° C | 63% | 1013.5 hPa | 0 mm | - | 163 W/m² | - |
| 1788562533 | 30.56° C | 63% | 1013.3 hPa | 0 mm | - | 179 W/m² | - |
| 1788562233 | 30.56° C | 63% | 1013.2 hPa | 0 mm | - | 199 W/m² | - |
| 1788561929 | 30.56° C | 62% | 1013.3 hPa | 0 mm | - | 209 W/m² | - |
| 1788561628 | 30.56° C | 62% | 1013.3 hPa | 0 mm | - | 224 W/m² | - |
| 1788561327 | 30.56° C | 62% | 1013.4 hPa | 0 mm | - | 241 W/m² | - |
| 1788561023 | 30.56° C | 63% | 1013.3 hPa | 0 mm | - | 260 W/m² | - |
| 1788560719 | 30.56° C | 61% | 1013.1 hPa | 0 mm | - | 276 W/m² | - |
| 1788560414 | 30.56° C | 61% | 1013 hPa | 0 mm | - | 292 W/m² | - |
| 1788560108 | 30.56° C | 61% | 1013 hPa | 0 mm | - | 310 W/m² | - |
| 1788559803 | 30.56° C | 60% | 1013.2 hPa | 0 mm | - | 326 W/m² | - |
| 1788559502 | 30.56° C | 60% | 1013 hPa | 0 mm | - | 341 W/m² | - |
| 1788559198 | 31.11° C | 59% | 1013 hPa | 0 mm | - | 360 W/m² | - |
| 1788558893 | 31.11° C | 59% | 1012.9 hPa | 0 mm | - | 377 W/m² | - |
| 1788558589 | 31.11° C | 59% | 1012.8 hPa | 0 mm | - | 395 W/m² | - |
| 1788558284 | 31.11° C | 60% | 1012.9 hPa | 0 mm | - | 412 W/m² | - |
| 1788557979 | 31.11° C | 59% | 1013 hPa | 0 mm | - | 427 W/m² | - |
| 1788557672 | 31.11° C | 59% | 1013.1 hPa | 0 mm | - | 440 W/m² | - |
| 1788557369 | 31.67° C | 59% | 1012.8 hPa | 0 mm | - | 457 W/m² | - |
| 1788557068 | 31.11° C | 60% | 1013 hPa | 0 mm | - | 473 W/m² | - |
| 1788556764 | 31.67° C | 59% | 1013 hPa | 0 mm | - | 491 W/m² | - |
* Rain latest hour (hover to see other rain measurements)
** Current wind speed in m/s (hover to see current wind gust speed)